Theta_e
340 338 334 332 328 328 332 332 333 333 335 338 333 337 339 338 338 338 339 338 334 335 330 335 340 340 341 340 327 330 333 337 335 334 329 334 336 341 341 342 332 328 331
340 340 334 331 327 329 330 332 332 334 336 333 332 338 338 338 337 333 337 341 341 341 340 340 339 336 338 334 339 332 333 332 335 333 336 334 340 344 345 340 337 334 330
342 342 338 333 328 329 332 338 333 333 336 335 335 333 338 338 338 336 339 335 340 341 336 337 338 336 340 340 338 336 335 343 342 344 346 337 334 340 339 336 333 334 335
343 347 342 339 335 336 340 341 335 333 334 337 338 339 338 339 338 335 336 340 338 340 339 335 338 334 336 337 334 334 342 343 343 344 344 347 332 326 326 333 338 333 337
347 349 343 342 339 341 342 340 334 333 333 334 338 341 339 340 338 333 338 338 334 332 333 338 336 336 334 336 338 334 343 345 345 348 344 344 335 324 320 333 333 332 338
348 348 342 342 342 342 341 334 332 333 334 334 339 338 340 340 338 333 334 339 338 332 330 330 331 338 340 339 338 334 343 345 343 344 343 343 333 330 335 340 341 338 333
348 342 341 340 340 337 332 331 333 335 335 335 337 339 338 336 338 336 336 333 331 331 331 331 331 332 337 339 338 337 341 343 344 344 339 338 334 334 338 336 337 336 336
349 343 340 337 331 331 331 333 337 337 336 336 336 333 334 333 334 340 337 340 334 332 333 333 334 332 332 333 337 335 340 343 345 344 340 339 333 330 333 336 336 335 334
346 342 338 332 330 332 337 336 339 338 339 338 336 337 334 334 333 333 333 334 333 333 333 333 333 333 332 332 332 336 338 346 347 341 338 336 334 331 331 333 335 336 336
344 342 335 333 337 338 338 340 335 332 331 331 331 331 331 333 334 339 332 332 332 332 333 333 332 333 333 333 332 332 343 344 343 340 336 334 334 335 331 333 335 336 336
344 344 346 346 342 346 340 335 333 332 332 332 333 334 347 347 347 349 347 346 339 335 333 334 335 336 333 344 334 331 338 345 344 344 343 337 333 337 335 331 332 334 336
345 342 344 346 347 346 349 339 337 333 337 345 345 342 347 347 347 346 347 342 335 329 329 331 332 335 342 340 348 333 345 345 347 343 342 342 340 339 336 336 333 333 334
345 345 346 345 348 347 348 347 344 346 346 348 345 344 349 350 348 345 351 349 351 346 345 349 348 346 347 343 349 349 347 345 343 343 342 342 339 341 339 337 335 333 334
346 346 346 348 348 346 348 347 348 349 349 350 347 343 350 347 348 350 350 350 350 346 342 349 348 349 348 345 348 348 348 347 344 339 341 344 341 342 342 340 338 334 332
345 346 345 347 350 348 349 348 348 348 348 347 349 344 349 349 350 351 353 351 351 350 348 352 348 346 348 345 343 342 347 341 344 345 343 342 344 343 341 343 341 337 331
345 345 345 348 346 350 349 349 348 347 346 349 349 349 348 353 352 353 349 351 348 350 345 342 342 347 346 343 343 344 344 345 344 344 343 345 344 343 343 343 343 340 333
344 344 348 349 349 350 348 350 347 346 347 350 348 351 348 353 348 349 350 350 349 348 347 346 346 343 342 342 341 344 347 345 344 343 345 347 344 344 343 342 343 341 333
344 344 346 346 349 350 349 342 346 348 349 349 348 350 353 351 350 346 350 353 350 347 350 349 346 345 343 345 342 346 342 350 348 349 349 347 346 345 339 342 342 341 338
344 345 347 345 346 347 347 347 349 350 350 349 351 352 351 354 355 349 349 354 346 353 351 348 348 347 344 346 349 349 347 350 351 351 350 349 349 347 343 343 344 343 343
345 346 347 345 346 346 348 350 350 350 350 350 350 351 353 343 352 352 352 352 351 353 348 348 348 349 348 350 351 349 350 344 349 350 343 349 349 349 346 346 342 344 344
345 346 347 346 346 348 349 349 351 349 350 350 350 353 350 352 354 348 353 354 351 351 344 350 350 349 350 350 348 350 348 350 351 351 347 348 347 348 344 345 345 345 344
346 346 346 347 348 349 351 351 349 350 352 349 350 351 350 350 353 355 347 352 352 349 348 348 349 350 350 350 346 347 348 349 350 351 352 349 349 349 348 345 343 343 342
348 349 349 349 351 348 352 350 352 352 352 351 351 351 350 353 357 356 351 351 343 350 348 347 349 348 348 351 351 350 347 348 348 350 350 349 347 349 347 345 346 344 343
348 350 351 350 352 348 352 355 352 349 350 349 350 351 353 355 351 356 351 352 349 354 346 352 350 351 349 351 352 353 348 349 347 347 347 348 347 347 347 345 346 346 343
349 349 351 351 353 354 346 353 353 351 352 352 351 352 355 352 345 356 352 351 342 354 350 351 347 345 354 352 353 349 344 345 346 348 346 346 348 346 347 343 345 345 345
348 350 350 351 352 352 355 350 354 355 351 351 353 354 352 354 350 349 357 352 345 352 344 350 346 345 349 347 349 348 347 346 345 344 346 347 347 346 345 343 343 342 344
Wind_Speed
16 17 18 17 18 18 16 17 17 16 15 14 15 16 17 20 19 18 20 20 20 21 20 19 19 17 16 16 15 14 15 15 15 17 17 18 18 21 25 22 15 20 19
17 17 17 17 17 16 15 16 15 14 15 14 16 17 20 22 23 23 21 20 19 18 19 18 17 15 14 15 16 16 16 16 15 16 14 16 17 16 18 17 13 18 18
18 16 16 16 17 16 16 15 14 13 15 14 15 16 18 19 19 21 19 18 17 16 16 16 15 13 14 15 16 17 18 17 17 19 21 9 14 15 15 13 15 17 17
19 15 14 16 17 17 16 13 13 13 14 13 14 16 16 17 17 17 17 16 15 15 13 14 14 15 15 13 15 16 17 14 16 10 11 16 13 13 11 14 13 14 16
21 17 15 17 17 15 12 10 12 12 11 12 13 14 16 16 15 14 13 12 11 11 12 11 12 14 13 12 11 14 18 15 10 3 11 17 10 15 15 15 14 15 15
19 16 21 19 16 13 11 11 10 9 10 12 12 13 15 12 12 11 9 8 7 8 9 9 9 10 11 11 11 14 17 14 12 9 12 9 10 13 15 15 12 10 11
21 18 19 17 16 12 10 10 9 10 10 12 10 11 11 11 10 8 7 5 5 6 7 7 7 7 8 8 10 11 13 10 14 8 4 10 8 10 11 11 10 8 8
17 17 17 15 13 11 9 9 9 10 11 10 8 8 8 7 7 7 5 5 3 3 3 4 4 6 5 6 7 10 10 11 10 8 8 12 10 10 11 10 9 9 8
19 16 16 14 12 10 9 9 9 9 10 9 7 6 6 6 5 4 3 2 1 0 1 1 1 3 4 4 5 7 9 9 7 3 7 8 10 11 10 11 9 6 7
16 16 13 13 11 10 10 9 8 9 8 7 6 6 6 7 5 7 3 2 3 3 2 1 1 2 3 3 3 7 11 10 10 3 4 7 4 4 7 9 9 8 8
16 17 15 7 9 8 7 6 6 7 7 5 5 5 6 9 5 4 6 5 7 5 3 2 1 1 3 4 7 8 8 3 8 10 6 4 3 2 7 8 9 10 10
18 19 18 17 11 7 6 4 3 5 5 4 4 4 5 6 2 0 4 5 4 3 4 2 1 1 2 3 4 5 10 7 9 8 4 4 7 2 9 9 10 10 12
15 24 13 17 15 7 6 1 6 6 3 3 1 3 3 3 3 4 7 4 4 1 4 6 3 1 5 8 5 3 6 10 6 6 6 9 9 3 5 10 11 12 10
24 25 15 16 16 11 2 5 8 8 6 11 6 4 3 7 11 7 3 6 8 4 3 5 5 1 5 2 5 4 3 2 6 4 8 12 6 4 1 11 14 14 13
20 18 15 18 14 10 8 6 7 5 6 10 4 2 4 2 6 8 2 9 15 7 5 3 5 6 4 5 8 11 6 10 5 2 4 5 2 1 6 4 16 20 17
18 17 17 16 21 11 15 10 8 11 5 5 7 7 3 7 5 6 6 5 14 8 9 10 10 13 11 5 4 4 9 11 4 2 2 2 3 1 0 3 7 20 19
17 16 19 13 13 14 15 15 12 8 5 8 4 3 4 7 8 6 5 7 8 13 14 11 9 11 11 7 5 1 4 6 5 4 3 5 1 3 4 5 7 16 19
17 19 16 14 13 13 11 9 11 5 8 6 6 7 6 3 7 7 10 14 14 10 14 9 3 1 6 6 5 4 1 7 7 6 5 3 3 4 8 7 7 8 17
16 20 15 15 13 12 11 7 8 6 6 6 5 8 9 2 7 10 4 9 13 13 13 11 6 7 4 5 5 2 2 5 7 11 6 4 5 1 4 2 2 4 7
17 15 15 15 12 13 12 9 5 5 7 2 5 8 5 7 2 12 5 9 11 8 10 9 12 13 8 6 4 4 5 5 5 5 4 6 4 3 0 3 3 5 5
17 16 18 16 16 10 11 11 8 9 8 3 5 6 7 4 7 7 4 6 9 8 8 8 9 9 8 3 3 2 1 1 2 3 6 5 4 3 8 4 6 4 2
19 18 19 17 18 18 14 9 8 5 6 6 5 7 7 3 4 7 2 3 4 6 9 7 6 7 6 3 1 5 8 5 3 4 5 4 7 8 6 5 3 4 2
23 20 19 20 17 16 14 11 8 6 3 4 9 6 4 5 3 4 3 2 4 4 8 7 5 6 5 4 7 7 4 3 6 8 5 5 5 9 11 2 2 0 3
26 22 19 18 19 14 20 14 9 7 6 6 6 5 8 6 3 1 3 3 7 3 3 5 6 7 7 5 2 3 5 3 3 4 5 8 5 6 8 2 7 5 3
29 25 22 19 20 16 16 16 12 12 8 6 9 11 7 7 2 5 2 2 8 3 4 5 1 3 1 2 3 4 4 1 1 3 9 11 12 8 6 3 7 6 4
28 25 25 21 19 19 19 16 17 13 12 10 10 8 7 3 2 3 3 4 6 4 1 3 3 6 5 8 6 8 2 3 2 3 5 10 13 11 11 8 6 5 9
Wind_Direction
122 120 123 125 129 127 111 109 106 97 91 85 90 93 94 100 101 103 103 96 91 89 90 92 92 94 97 96 102 97 95 92 88 87 99 97 90 88 83 70 80 91 93
127 122 131 133 136 135 119 112 105 99 95 90 90 96 103 102 104 103 101 97 93 93 91 87 86 94 95 100 94 89 83 84 84 82 86 94 90 88 97 97 94 96 94
135 127 139 141 139 134 124 109 108 104 96 96 93 101 108 108 108 104 102 101 98 91 92 85 76 94 102 97 96 93 93 92 92 92 78 68 96 100 102 103 97 100 107
131 114 147 145 141 133 128 113 115 103 98 100 100 102 107 112 113 113 109 101 97 95 88 83 76 90 96 98 89 98 98 84 78 103 100 104 94 101 109 113 108 99 107
131 148 148 151 150 143 133 117 112 107 103 105 103 107 104 113 119 123 115 106 100 95 98 92 86 94 100 90 84 105 108 89 71 37 80 119 90 103 110 113 110 104 111
143 155 146 141 150 147 139 121 113 110 111 113 111 107 111 112 121 130 123 114 99 92 98 97 96 98 97 98 89 111 116 101 93 78 98 104 82 115 117 117 114 112 113
158 152 142 140 143 143 135 119 119 117 116 122 119 114 113 121 127 134 136 133 117 113 114 107 105 107 104 98 92 112 127 109 94 94 167 108 110 126 125 125 120 130 115
142 147 142 144 137 139 132 131 131 124 123 124 134 132 127 126 130 132 137 132 123 121 115 110 119 124 121 114 108 106 128 113 118 115 118 103 117 130 131 130 134 135 128
143 155 145 146 154 146 134 139 140 134 126 129 139 127 117 109 101 98 113 114 78 102 141 127 120 125 133 117 114 110 110 115 109 185 167 159 129 127 132 139 143 147 138
149 142 149 161 147 141 142 145 149 138 134 136 131 114 113 102 77 50 11 82 355 301 280 260 227 85 85 92 92 105 115 141 153 135 178 146 98 123 147 153 147 139 139
158 160 160 150 132 143 146 159 154 149 138 132 115 81 82 63 47 20 354 320 303 290 275 261 310 98 135 90 90 114 130 103 112 159 214 190 219 321 176 170 173 164 154
168 151 160 182 180 153 161 121 175 139 120 100 86 119 56 38 22 312 298 315 290 285 266 258 142 238 55 280 221 138 118 113 107 173 224 275 352 241 187 181 178 184 173
170 168 147 160 191 163 200 64 103 101 111 123 283 195 325 190 188 254 258 292 272 233 264 278 249 197 219 257 131 150 54 164 147 240 257 268 287 357 189 201 197 192 187
158 166 175 162 171 190 153 145 208 197 139 185 287 268 162 223 218 215 259 271 290 311 233 215 281 322 205 249 145 112 184 173 310 271 240 256 292 4 141 206 202 200 195
163 169 174 176 164 162 169 187 205 159 191 220 277 114 220 274 252 260 242 330 303 288 24 164 270 275 251 215 198 205 186 234 263 304 217 237 227 27 34 167 200 198 194
168 171 174 181 191 174 179 183 191 190 200 237 203 262 249 278 330 335 20 308 309 314 324 300 279 253 260 249 215 178 199 243 287 297 281 239 268 134 181 42 171 195 191
174 171 166 183 183 181 182 203 171 173 191 229 314 252 212 240 270 292 346 292 348 347 330 312 272 257 247 234 215 175 182 183 248 238 272 268 215 167 141 89 125 177 193
173 166 174 181 183 183 179 201 153 183 201 227 252 219 258 315 328 332 321 2 13 348 2 356 17 270 194 191 189 145 103 217 204 216 195 221 186 177 161 133 125 157 190
172 165 176 177 185 183 195 196 162 211 205 220 249 249 41 17 301 324 14 348 355 355 25 29 57 84 140 151 156 132 148 230 221 226 223 178 143 136 165 158 204 181 180
173 174 178 177 185 185 208 180 185 182 230 159 255 271 23 341 237 323 354 2 43 6 6 57 75 76 92 103 194 241 267 234 225 352 205 209 149 157 125 163 158 163 209
171 179 180 181 187 190 201 176 204 216 211 188 196 233 281 347 314 320 49 5 1 354 33 72 77 67 82 110 145 208 17 110 271 129 119 154 140 145 134 134 107 101 134
172 181 183 185 201 192 191 196 195 229 229 224 194 259 295 294 19 343 68 35 333 334 34 79 94 105 105 125 122 104 108 149 119 89 77 61 101 125 127 92 87 84 105
173 185 193 188 209 190 184 200 228 197 225 191 218 256 296 322 4 356 332 332 78 18 18 49 52 89 111 86 61 42 115 137 112 106 118 110 121 138 146 89 78 213 103
180 184 200 200 208 207 182 196 200 211 201 214 230 227 218 296 291 159 41 358 148 78 353 26 39 77 90 108 76 25 38 68 127 130 124 109 116 162 154 165 160 180 215
182 183 196 218 206 205 194 178 210 209 209 190 217 199 210 270 241 146 195 158 140 138 242 188 181 155 102 202 151 159 48 6 111 170 165 173 143 179 153 253 177 220 186
182 186 192 209 222 206 221 202 192 217 205 197 211 214 212 200 356 145 188 153 166 139 25 101 211 164 216 195 154 133 19 89 20 6 161 180 189 189 203 232 216 188 202